Time,TemperatureF,DewpointF,PressureIn,WindDirection,WindDirectionDegrees,WindSpeedMPH,WindSpeedGustMPH,Humidity,HourlyPrecipIn,Conditions,Clouds,dailyrainin,SolarRadiationWatts/m^2,SoftwareType,DateUTC
2013-09-07 00:00:00,64.5,62.1,30.02,WSW,240,0.0,0.0,92,0.00,,---,0.00,0.00,VWS V14.01,2013-09-07 04:00:00,
2013-09-07 00:01:00,64.6,61.9,30.02,WSW,240,0.0,0.0,91,0.00,,---,0.00,0.00,VWS V14.01,2013-09-07 04:01:00,
2013-09-07 00:02:00,64.6,61.9,30.02,WSW,240,0.0,0.0,91,0.00,,---,0.00,0.00,VWS V14.01,2013-09-07 04:02:00,
2013-09-07 00:05:00,64.5,62.1,30.02,WSW,240,0.0,0.0,92,0.00,,---,0.00,0.00,VWS V14.01,2013-09-07 04:05:00,
2013-09-07 00:10:00,64.4,62.0,30.02,WSW,240,0.0,0.0,92,0.00,,---,0.00,0.00,VWS V14.01,2013-09-07 04:10:00,
2013-09-07 00:15:00,64.3,61.9,30.02,WSW,240,0.0,0.0,92,0.00,,---,0.00,0.00,VWS V14.01,2013-09-07 04:15:00,
2013-09-07 00:17:00,64.2,61.8,30.02,WSW,240,0.0,0.0,92,0.00,,---,0.00,0.00,VWS V14.01,2013-09-07 04:17:00,
2013-09-07 00:20:00,64.3,62.2,30.02,WSW,240,0.0,0.0,93,0.00,,---,0.00,0.00,VWS V14.01,2013-09-07 04:20:00,
2013-09-07 00:22:00,64.2,62.1,30.02,WSW,240,0.0,0.0,93,0.00,,---,0.00,0.00,VWS V14.01,2013-09-07 04:22:00,
2013-09-07 00:27:00,64.3,62.2,30.02,WSW,240,0.0,0.0,93,0.00,,---,0.00,0.00,VWS V14.01,2013-09-07 04:27:00,
2013-09-07 00:30:00,64.1,62.0,30.02,WSW,240,0.0,0.0,93,0.00,,---,0.00,0.00,VWS V14.01,2013-09-07 04:30:00,
2013-09-07 00:32:00,64.2,61.8,30.02,WSW,240,0.0,0.0,92,0.00,,---,0.00,0.00,VWS V14.01,2013-09-07 04:32:00,
2013-09-07 00:37:00,64.1,62.0,30.02,WSW,240,0.0,0.0,93,0.00,,---,0.00,0.00,VWS V14.01,2013-09-07 04:37:00,
2013-09-07 00:40:00,63.7,61.6,30.02,WSW,240,0.0,0.0,93,0.00,,---,0.00,0.00,VWS V14.01,2013-09-07 04:40:00,
2013-09-07 00:43:00,64.0,61.9,30.02,WSW,240,0.0,0.0,93,0.00,,---,0.00,0.00,VWS V14.01,2013-09-07 04:43:00,
2013-09-07 00:48:00,63.7,61.6,30.02,WSW,240,0.0,0.0,93,0.00,,---,0.00,0.00,VWS V14.01,2013-09-07 04:48:00,
2013-09-07 00:50:00,63.4,61.7,30.02,WSW,240,0.0,0.0,94,0.00,,---,0.00,0.00,VWS V14.01,2013-09-07 04:50:00,
2013-09-07 00:53:00,63.6,61.5,30.02,WSW,240,0.0,0.0,93,0.00,,---,0.00,0.00,VWS V14.01,2013-09-07 04:53:00,
2013-09-07 00:58:00,63.4,61.7,30.02,WSW,240,0.0,0.0,94,0.00,,---,0.00,0.00,VWS V14.01,2013-09-07 04:58:00,
2013-09-07 01:00:00,63.1,61.0,30.02,WSW,240,0.0,0.0,93,0.00,,---,0.00,0.00,VWS V14.01,2013-09-07 05:00:00,
2013-09-07 01:03:00,63.3,61.5,30.02,WSW,240,0.0,0.0,94,0.00,,---,0.00,0.00,VWS V14.01,2013-09-07 05:03:00,
2013-09-07 01:08:00,63.1,61.0,30.02,WSW,240,0.0,0.0,93,0.00,,---,0.00,0.00,VWS V14.01,2013-09-07 05:08:00,
2013-09-07 01:10:00,62.8,61.0,30.02,WSW,240,0.0,0.0,94,0.00,,---,0.00,0.00,VWS V14.01,2013-09-07 05:10:00,
2013-09-07 01:13:00,62.9,61.2,30.02,WSW,240,0.0,0.0,94,0.00,,---,0.00,0.00,VWS V14.01,2013-09-07 05:13:00,
2013-09-07 01:18:00,62.8,61.0,30.02,WSW,240,0.0,0.0,94,0.00,,---,0.00,0.00,VWS V14.01,2013-09-07 05:18:00,
2013-09-07 01:20:00,62.8,61.3,30.02,WSW,240,0.0,0.0,95,0.00,,---,0.00,0.00,VWS V14.01,2013-09-07 05:20:00,
2013-09-07 01:23:00,62.8,61.3,30.03,WSW,240,0.0,0.0,95,0.00,,---,0.00,0.00,VWS V14.01,2013-09-07 05:23:00,
2013-09-07 01:29:00,62.8,61.3,30.02,WSW,240,0.0,0.0,95,0.00,,---,0.00,0.00,VWS V14.01,2013-09-07 05:29:00,
2013-09-07 01:30:00,62.9,61.5,30.02,WSW,240,0.0,0.0,95,0.00,,---,0.00,0.00,VWS V14.01,2013-09-07 05:30:00,
2013-09-07 01:34:00,62.9,61.5,30.03,WSW,240,0.0,0.0,95,0.00,,---,0.00,0.00,VWS V14.01,2013-09-07 05:34:00,
2013-09-07 01:39:00,62.9,61.5,30.02,WSW,240,0.0,0.0,95,0.00,,---,0.00,0.00,VWS V14.01,2013-09-07 05:39:00,
2013-09-07 01:40:00,62.7,61.2,30.02,WSW,240,0.0,0.0,95,0.00,,---,0.00,0.00,VWS V14.01,2013-09-07 05:40:00,
2013-09-07 01:44:00,62.8,61.3,30.02,WSW,240,0.0,0.0,95,0.00,,---,0.00,0.00,VWS V14.01,2013-09-07 05:44:00,
2013-09-07 01:49:00,62.7,61.2,30.02,WSW,240,0.0,0.0,95,0.00,,---,0.00,0.00,VWS V14.01,2013-09-07 05:49:00,
2013-09-07 01:50:00,62.4,61.0,30.02,WSW,240,0.0,0.0,95,0.00,,---,0.00,0.00,VWS V14.01,2013-09-07 05:50:00,
2013-09-07 01:54:00,62.5,61.0,30.02,WSW,240,0.0,0.0,95,0.00,,---,0.00,0.00,VWS V14.01,2013-09-07 05:54:00,
2013-09-07 01:59:00,62.4,61.0,30.02,WSW,240,0.0,0.0,95,0.00,,---,0.00,0.00,VWS V14.01,2013-09-07 05:59:00,
2013-09-07 02:00:00,62.5,61.3,30.02,WSW,240,0.0,0.0,96,0.00,,---,0.00,0.00,VWS V14.01,2013-09-07 06:00:00,
2013-09-07 02:05:00,62.5,61.3,30.02,WSW,240,0.0,0.0,96,0.00,,---,0.00,0.00,VWS V14.01,2013-09-07 06:05:00,
2013-09-07 02:10:00,62.4,61.2,30.02,WSW,240,0.0,0.0,96,0.00,,---,0.00,0.00,VWS V14.01,2013-09-07 06:10:00,
2013-09-07 02:15:00,62.3,61.2,30.02,WSW,240,0.0,0.0,96,0.00,,---,0.00,0.00,VWS V14.01,2013-09-07 06:15:00,
2013-09-07 02:20:00,62.1,60.7,30.02,WSW,240,0.0,0.0,95,0.00,,---,0.00,0.00,VWS V14.01,2013-09-07 06:20:00,
2013-09-07 02:25:00,61.9,60.5,30.02,WSW,240,0.0,0.0,95,0.00,,---,0.00,0.00,VWS V14.01,2013-09-07 06:25:00,
2013-09-07 02:30:00,61.7,60.3,30.02,WSW,240,0.0,0.0,95,0.00,,---,0.00,0.00,VWS V14.01,2013-09-07 06:30:00,
2013-09-07 02:36:00,61.6,60.2,30.02,WSW,240,0.0,0.0,95,0.00,,---,0.00,0.00,VWS V14.01,2013-09-07 06:36:00,
2013-09-07 02:40:00,61.3,60.2,30.01,WSW,240,0.0,0.0,96,0.00,,---,0.00,0.00,VWS V14.01,2013-09-07 06:40:00,
2013-09-07 02:41:00,61.4,60.0,30.01,WSW,240,0.0,0.0,95,0.00,,---,0.00,0.00,VWS V14.01,2013-09-07 06:41:00,
2013-09-07 02:46:00,61.3,60.2,30.01,WSW,240,0.0,0.0,96,0.00,,---,0.00,0.00,VWS V14.01,2013-09-07 06:46:00,
2013-09-07 02:50:00,61.1,60.0,30.02,WSW,240,0.0,0.0,96,0.00,,---,0.00,0.00,VWS V14.01,2013-09-07 06:50:00,
2013-09-07 02:51:00,61.2,60.0,30.01,WSW,240,0.0,0.0,96,0.00,,---,0.00,0.00,VWS V14.01,2013-09-07 06:51:00,
2013-09-07 02:56:00,61.1,60.0,30.02,WSW,240,0.0,0.0,96,0.00,,---,0.00,0.00,VWS V14.01,2013-09-07 06:56:00,
2013-09-07 03:00:00,61.1,60.0,30.02,WSW,240,0.0,0.0,96,0.00,,---,0.00,0.00,VWS V14.01,2013-09-07 07:00:00,
2013-09-07 03:01:00,61.2,60.0,30.01,WSW,240,0.0,0.0,96,0.00,,---,0.00,0.00,VWS V14.01,2013-09-07 07:01:00,
2013-09-07 03:06:00,61.1,60.0,30.01,WSW,240,0.0,0.0,96,0.00,,---,0.00,0.00,VWS V14.01,2013-09-07 07:06:00,
2013-09-07 03:10:00,61.0,59.8,30.02,WSW,240,0.0,0.0,96,0.00,,---,0.00,0.00,VWS V14.01,2013-09-07 07:10:00,
2013-09-07 03:12:00,61.1,60.0,30.02,WSW,240,0.0,0.0,96,0.00,,---,0.00,0.00,VWS V14.01,2013-09-07 07:12:00,
2013-09-07 03:17:00,61.0,59.9,30.01,WSW,240,0.0,0.0,96,0.00,,---,0.00,0.00,VWS V14.01,2013-09-07 07:17:00,
2013-09-07 03:20:00,60.7,59.6,30.01,WSW,240,0.0,0.0,96,0.00,,---,0.00,0.00,VWS V14.01,2013-09-07 07:20:00,
2013-09-07 03:22:00,60.9,59.8,30.01,WSW,240,0.0,0.0,96,0.00,,---,0.00,0.00,VWS V14.01,2013-09-07 07:22:00,
2013-09-07 03:27:00,60.7,59.6,30.01,WSW,240,0.0,0.0,96,0.00,,---,0.00,0.00,VWS V14.01,2013-09-07 07:27:00,
2013-09-07 03:30:00,60.6,59.8,30.01,WSW,240,0.0,0.0,97,0.00,,---,0.00,0.00,VWS V14.01,2013-09-07 07:30:00,
2013-09-07 03:32:00,60.7,59.6,30.01,WSW,240,0.0,0.0,96,0.00,,---,0.00,0.00,VWS V14.01,2013-09-07 07:32:00,
2013-09-07 03:37:00,60.6,59.8,30.01,WSW,240,0.0,0.0,97,0.00,,---,0.00,0.00,VWS V14.01,2013-09-07 07:37:00,
2013-09-07 03:40:00,60.6,59.8,30.01,WSW,240,0.0,0.0,97,0.00,,---,0.00,0.00,VWS V14.01,2013-09-07 07:40:00,
2013-09-07 03:42:00,60.5,59.7,30.01,WSW,240,0.0,0.0,97,0.00,,---,0.00,0.00,VWS V14.01,2013-09-07 07:42:00,
2013-09-07 03:48:00,60.6,59.8,30.01,WSW,240,0.0,0.0,97,0.00,,---,0.00,0.00,VWS V14.01,2013-09-07 07:48:00,
2013-09-07 03:50:00,60.6,59.8,30.01,WSW,240,0.0,0.0,97,0.00,,---,0.00,0.00,VWS V14.01,2013-09-07 07:50:00,
2013-09-07 03:53:00,60.6,59.8,30.01,WSW,240,0.0,0.0,97,0.00,,---,0.00,0.00,VWS V14.01,2013-09-07 07:53:00,
2013-09-07 03:58:00,60.6,59.8,30.01,WSW,240,0.0,0.0,97,0.00,,---,0.00,0.00,VWS V14.01,2013-09-07 07:58:00,
2013-09-07 04:00:00,60.3,59.5,30.01,WSW,240,0.0,0.0,97,0.00,,---,0.00,0.00,VWS V14.01,2013-09-07 08:00:00,
2013-09-07 04:03:00,60.5,59.7,30.01,WSW,240,0.0,0.0,97,0.00,,---,0.00,0.00,VWS V14.01,2013-09-07 08:03:00,
2013-09-07 04:08:00,60.3,59.5,30.01,WSW,240,0.0,0.0,97,0.00,,---,0.00,0.00,VWS V14.01,2013-09-07 08:08:00,
2013-09-07 04:10:00,60.2,59.3,30.01,WSW,240,0.0,0.0,97,0.00,,---,0.00,0.00,VWS V14.01,2013-09-07 08:10:00,
2013-09-07 04:13:00,60.3,59.5,30.01,WSW,240,0.0,0.0,97,0.00,,---,0.00,0.00,VWS V14.01,2013-09-07 08:13:00,
2013-09-07 04:18:00,60.2,59.3,30.01,WSW,240,0.0,0.0,97,0.00,,---,0.00,0.00,VWS V14.01,2013-09-07 08:18:00,
2013-09-07 04:20:00,60.0,59.2,30.01,WSW,240,0.0,0.0,97,0.00,,---,0.00,0.00,VWS V14.01,2013-09-07 08:20:00,
2013-09-07 04:23:00,60.1,59.2,30.01,WSW,240,0.0,0.0,97,0.00,,---,0.00,0.00,VWS V14.01,2013-09-07 08:23:00,
2013-09-07 04:28:00,60.0,59.2,30.01,WSW,240,0.0,0.0,97,0.00,,---,0.00,0.00,VWS V14.01,2013-09-07 08:28:00,
2013-09-07 04:30:00,59.8,59.0,30.01,WSW,240,0.0,0.0,97,0.00,,---,0.00,0.00,VWS V14.01,2013-09-07 08:30:00,
2013-09-07 04:34:00,59.8,59.0,30.01,WSW,240,0.0,0.0,97,0.00,,---,0.00,0.00,VWS V14.01,2013-09-07 08:34:00,
2013-09-07 04:39:00,59.7,58.8,30.01,WSW,240,0.0,0.0,97,0.00,,---,0.00,0.00,VWS V14.01,2013-09-07 08:39:00,
2013-09-07 04:40:00,59.6,58.8,30.01,WSW,240,0.0,0.0,97,0.00,,---,0.00,0.00,VWS V14.01,2013-09-07 08:40:00,
2013-09-07 04:44:00,59.7,58.8,30.01,WSW,240,0.0,0.0,97,0.00,,---,0.00,0.00,VWS V14.01,2013-09-07 08:44:00,
2013-09-07 04:49:00,59.6,58.8,30.01,WSW,240,0.0,0.0,97,0.00,,---,0.00,0.00,VWS V14.01,2013-09-07 08:49:00,
2013-09-07 04:50:00,59.6,58.8,30.01,WSW,240,0.0,0.0,97,0.00,,---,0.00,0.00,VWS V14.01,2013-09-07 08:50:00,
2013-09-07 04:54:00,59.6,58.8,30.01,WSW,240,0.0,0.0,97,0.00,,---,0.00,0.00,VWS V14.01,2013-09-07 08:54:00,
2013-09-07 04:59:00,59.6,58.8,30.01,WSW,240,0.0,0.0,97,0.00,,---,0.00,0.00,VWS V14.01,2013-09-07 08:59:00,
2013-09-07 05:00:00,59.5,58.7,30.01,WSW,240,0.0,0.0,97,0.00,,---,0.00,0.00,VWS V14.01,2013-09-07 09:00:00,
2013-09-07 05:04:00,59.6,58.8,30.01,WSW,240,0.0,0.0,97,0.00,,---,0.00,0.00,VWS V14.01,2013-09-07 09:04:00,
2013-09-07 05:09:00,59.5,58.7,30.01,WSW,240,0.0,0.0,97,0.00,,---,0.00,0.00,VWS V14.01,2013-09-07 09:09:00,
2013-09-07 05:10:00,59.4,58.5,30.01,WSW,240,0.0,0.0,97,0.00,,---,0.00,0.00,VWS V14.01,2013-09-07 09:10:00,
2013-09-07 05:14:00,59.4,58.5,30.01,WSW,240,0.0,0.0,97,0.00,,---,0.00,0.00,VWS V14.01,2013-09-07 09:14:00,
2013-09-07 05:20:00,59.3,58.5,30.01,WSW,240,0.0,0.0,97,0.00,,---,0.00,0.00,VWS V14.01,2013-09-07 09:20:00,
2013-09-07 05:25:00,59.4,58.5,30.01,WSW,240,0.0,0.0,97,0.00,,---,0.00,0.00,VWS V14.01,2013-09-07 09:25:00,
2013-09-07 05:30:00,59.5,58.7,30.01,WSW,240,0.0,0.0,97,0.00,,---,0.00,0.00,VWS V14.01,2013-09-07 09:30:00,
2013-09-07 05:35:00,59.4,58.5,30.01,WSW,240,0.0,0.0,97,0.00,,---,0.00,0.00,VWS V14.01,2013-09-07 09:35:00,
2013-09-07 05:40:00,59.2,58.3,30.01,WSW,240,0.0,0.0,97,0.00,,---,0.00,0.00,VWS V14.01,2013-09-07 09:40:00,
2013-09-07 05:45:00,59.3,58.5,30.01,WSW,240,0.0,0.0,97,0.00,,---,0.00,0.00,VWS V14.01,2013-09-07 09:45:00,
2013-09-07 05:50:00,59.4,58.5,30.01,WSW,240,0.0,0.0,97,0.00,,---,0.00,0.00,VWS V14.01,2013-09-07 09:50:00,
2013-09-07 05:55:00,59.3,58.5,30.01,WSW,240,0.0,0.0,97,0.00,,---,0.00,0.00,VWS V14.01,2013-09-07 09:55:00,
2013-09-07 06:00:00,59.1,58.2,30.01,WSW,240,0.0,0.0,97,0.00,,---,0.00,0.00,VWS V14.01,2013-09-07 10:00:00,
2013-09-07 06:05:00,59.0,58.2,30.01,WSW,240,0.0,0.0,97,0.00,,---,0.00,0.00,VWS V14.01,2013-09-07 10:05:00,
2013-09-07 06:10:00,58.8,58.0,30.01,WSW,240,0.0,0.0,97,0.00,,---,0.00,0.00,VWS V14.01,2013-09-07 10:10:00,
2013-09-07 06:15:00,58.8,58.0,30.01,WSW,240,0.0,0.0,97,0.00,,---,0.00,0.00,VWS V14.01,2013-09-07 10:15:00,
2013-09-07 06:20:00,58.8,58.0,30.02,WSW,240,0.0,0.0,97,0.00,,---,0.00,0.00,VWS V14.01,2013-09-07 10:20:00,
2013-09-07 06:21:00,58.9,58.0,30.01,WSW,240,0.0,0.0,97,0.00,,---,0.00,0.00,VWS V14.01,2013-09-07 10:21:00,
2013-09-07 06:26:00,58.9,58.3,30.02,WSW,240,0.0,0.0,98,0.00,,---,0.00,0.00,VWS V14.01,2013-09-07 10:26:00,
2013-09-07 06:30:00,58.5,57.7,30.02,WSW,240,0.0,0.0,97,0.00,,---,0.00,0.00,VWS V14.01,2013-09-07 10:30:00,
2013-09-07 06:31:00,58.7,57.8,30.02,WSW,240,0.0,0.0,97,0.00,,---,0.00,0.00,VWS V14.01,2013-09-07 10:31:00,
2013-09-07 06:36:00,58.5,57.7,30.02,WSW,240,0.0,0.0,97,0.00,,---,0.00,0.00,VWS V14.01,2013-09-07 10:36:00,
2013-09-07 06:40:00,58.4,57.6,30.02,WSW,240,0.0,0.0,97,0.00,,---,0.00,0.00,VWS V14.01,2013-09-07 10:40:00,
2013-09-07 06:41:00,58.5,57.7,30.02,WSW,240,0.0,0.0,97,0.00,,---,0.00,0.00,VWS V14.01,2013-09-07 10:41:00,
2013-09-07 06:46:00,58.4,57.6,30.02,WSW,240,0.0,0.0,97,0.00,,---,0.00,0.00,VWS V14.01,2013-09-07 10:46:00,
2013-09-07 06:50:00,58.3,57.5,30.02,WSW,240,0.0,0.0,97,0.00,,---,0.00,0.00,VWS V14.01,2013-09-07 10:50:00,
2013-09-07 06:51:00,58.4,57.6,30.02,WSW,240,0.0,0.0,97,0.00,,---,0.00,0.00,VWS V14.01,2013-09-07 10:51:00,
2013-09-07 06:56:00,58.3,57.5,30.02,WSW,240,0.0,0.0,97,0.00,,---,0.00,0.00,VWS V14.01,2013-09-07 10:56:00,
2013-09-07 07:00:00,58.6,58.0,30.02,WSW,240,0.0,0.0,98,0.00,,---,0.00,5.00,VWS V14.01,2013-09-07 11:00:00,
2013-09-07 07:01:00,58.4,57.8,30.02,WSW,240,0.0,0.0,98,0.00,,---,0.00,0.00,VWS V14.01,2013-09-07 11:01:00,
2013-09-07 07:06:00,58.6,58.0,30.02,WSW,240,0.0,0.0,98,0.00,,---,0.00,0.00,VWS V14.01,2013-09-07 11:06:00,
2013-09-07 07:10:00,58.7,58.1,30.03,WSW,240,0.0,0.0,98,0.00,,---,0.00,11.00,VWS V14.01,2013-09-07 11:10:00,
2013-09-07 07:12:00,58.7,58.1,30.02,WSW,240,0.0,0.0,98,0.00,,---,0.00,7.00,VWS V14.01,2013-09-07 11:12:00,
2013-09-07 07:17:00,58.7,58.1,30.03,WSW,240,0.0,0.0,98,0.00,,---,0.00,11.00,VWS V14.01,2013-09-07 11:17:00,
2013-09-07 07:20:00,58.7,58.1,30.03,WSW,240,0.0,0.0,98,0.00,,---,0.00,18.00,VWS V14.01,2013-09-07 11:20:00,
2013-09-07 07:22:00,58.7,58.1,30.03,WSW,240,0.0,0.0,98,0.00,,---,0.00,14.00,VWS V14.01,2013-09-07 11:22:00,
2013-09-07 07:27:00,58.7,58.1,30.03,WSW,240,0.0,0.0,98,0.00,,---,0.00,16.00,VWS V14.01,2013-09-07 11:27:00,
2013-09-07 07:30:00,58.9,58.3,30.03,WSW,240,0.0,0.0,98,0.00,,---,0.00,30.00,VWS V14.01,2013-09-07 11:30:00,
2013-09-07 07:32:00,58.8,58.2,30.03,WSW,240,0.0,0.0,98,0.00,,---,0.00,25.00,VWS V14.01,2013-09-07 11:32:00,
2013-09-07 07:37:00,58.9,58.3,30.03,WSW,240,0.0,0.0,98,0.00,,---,0.00,30.00,VWS V14.01,2013-09-07 11:37:00,
2013-09-07 07:40:00,59.0,58.4,30.04,WSW,240,0.0,0.0,98,0.00,,---,0.00,23.00,VWS V14.01,2013-09-07 11:40:00,
2013-09-07 07:42:00,59.0,58.4,30.03,WSW,240,0.0,0.0,98,0.00,,---,0.00,30.00,VWS V14.01,2013-09-07 11:42:00,
2013-09-07 07:47:00,59.0,58.4,30.04,WSW,240,0.0,0.0,98,0.00,,---,0.00,25.00,VWS V14.01,2013-09-07 11:47:00,
2013-09-07 07:50:00,59.2,58.6,30.04,WSW,240,0.0,0.0,98,0.00,,---,0.00,25.00,VWS V14.01,2013-09-07 11:50:00,
2013-09-07 07:52:00,59.1,58.5,30.04,WSW,240,0.0,0.0,98,0.00,,---,0.00,25.00,VWS V14.01,2013-09-07 11:52:00,
2013-09-07 07:57:00,59.2,58.6,30.04,WSW,240,0.0,0.0,98,0.00,,---,0.00,23.00,VWS V14.01,2013-09-07 11:57:00,
2013-09-07 08:00:00,59.3,58.7,30.04,WSW,240,0.0,0.0,98,0.00,,---,0.00,30.00,VWS V14.01,2013-09-07 12:00:00,
2013-09-07 08:02:00,59.3,58.7,30.04,WSW,240,0.0,0.0,98,0.00,,---,0.00,26.00,VWS V14.01,2013-09-07 12:02:00,
2013-09-07 08:07:00,59.3,58.7,30.04,WSW,240,0.0,0.0,98,0.00,,---,0.00,30.00,VWS V14.01,2013-09-07 12:07:00,
2013-09-07 08:10:00,59.6,59.0,30.04,WSW,240,0.0,0.0,98,0.00,,---,0.00,39.00,VWS V14.01,2013-09-07 12:10:00,
2013-09-07 08:13:00,59.4,58.8,30.04,WSW,240,0.0,0.0,98,0.00,,---,0.00,32.00,VWS V14.01,2013-09-07 12:13:00,
2013-09-07 08:18:00,59.6,59.0,30.04,WSW,240,0.0,0.0,98,0.00,,---,0.00,39.00,VWS V14.01,2013-09-07 12:18:00,
2013-09-07 08:20:00,60.0,59.4,30.04,WSW,240,0.0,0.0,98,0.00,,---,0.00,40.00,VWS V14.01,2013-09-07 12:20:00,
2013-09-07 08:23:00,59.8,59.2,30.04,WSW,240,0.0,0.0,98,0.00,,---,0.00,40.00,VWS V14.01,2013-09-07 12:23:00,
2013-09-07 08:28:00,60.0,59.4,30.04,WSW,240,0.0,0.0,98,0.00,,---,0.00,40.00,VWS V14.01,2013-09-07 12:28:00,
2013-09-07 08:30:00,60.4,59.8,30.04,WSW,240,0.0,0.0,98,0.00,,---,0.00,35.00,VWS V14.01,2013-09-07 12:30:00,
2013-09-07 08:33:00,60.2,59.6,30.04,WSW,240,0.0,0.0,98,0.00,,---,0.00,37.00,VWS V14.01,2013-09-07 12:33:00,
2013-09-07 08:38:00,60.4,59.8,30.04,WSW,240,0.0,0.0,98,0.00,,---,0.00,35.00,VWS V14.01,2013-09-07 12:38:00,
2013-09-07 08:40:00,60.9,60.3,30.03,WSW,240,0.0,0.0,98,0.00,,---,0.00,39.00,VWS V14.01,2013-09-07 12:40:00,
2013-09-07 08:43:00,60.6,60.0,30.04,WSW,240,0.0,0.0,98,0.00,,---,0.00,35.00,VWS V14.01,2013-09-07 12:43:00,
2013-09-07 08:48:00,60.9,60.3,30.03,WSW,240,0.0,0.0,98,0.00,,---,0.00,37.00,VWS V14.01,2013-09-07 12:48:00,
2013-09-07 08:50:00,61.4,60.8,30.03,WSW,240,0.0,0.0,98,0.00,,---,0.00,39.00,VWS V14.01,2013-09-07 12:50:00,
2013-09-07 08:53:00,61.2,60.6,30.03,WSW,240,0.0,0.0,98,0.00,,---,0.00,39.00,VWS V14.01,2013-09-07 12:53:00,
2013-09-07 08:58:00,61.5,60.9,30.03,WSW,240,0.0,0.0,98,0.00,,---,0.00,39.00,VWS V14.01,2013-09-07 12:58:00,
2013-09-07 09:00:00,61.9,61.3,30.03,WSW,240,0.0,0.0,98,0.00,,---,0.00,118.00,VWS V14.01,2013-09-07 13:00:00,
2013-09-07 09:03:00,61.7,61.4,30.03,WSW,240,0.0,0.0,99,0.00,,---,0.00,40.00,VWS V14.01,2013-09-07 13:03:00,
2013-09-07 09:09:00,62.0,61.4,30.03,WSW,240,0.0,0.0,98,0.00,,---,0.00,118.00,VWS V14.01,2013-09-07 13:09:00,
2013-09-07 09:10:00,63.4,63.1,30.04,WSW,240,0.0,0.0,99,0.00,,---,0.00,316.00,VWS V14.01,2013-09-07 13:10:00,
2013-09-07 09:14:00,62.6,62.3,30.03,WSW,240,0.0,0.0,99,0.00,,---,0.00,302.00,VWS V14.01,2013-09-07 13:14:00,
2013-09-07 09:19:00,63.6,63.3,30.04,WSW,240,0.0,0.0,99,0.00,,---,0.00,320.00,VWS V14.01,2013-09-07 13:19:00,
2013-09-07 09:20:00,64.7,64.4,30.04,WSW,240,0.0,0.0,99,0.00,,---,0.00,346.00,VWS V14.01,2013-09-07 13:20:00,
2013-09-07 09:24:00,64.1,63.8,30.04,WSW,240,0.0,0.0,99,0.00,,---,0.00,334.00,VWS V14.01,2013-09-07 13:24:00,
2013-09-07 09:29:00,64.9,64.6,30.04,WSW,240,0.0,0.0,99,0.00,,---,0.00,348.00,VWS V14.01,2013-09-07 13:29:00,
2013-09-07 09:30:00,66.1,65.8,30.04,WSW,240,0.0,0.0,99,0.00,,---,0.00,376.00,VWS V14.01,2013-09-07 13:30:00,
2013-09-07 09:34:00,65.8,65.5,30.03,WSW,240,0.0,0.0,99,0.00,,---,0.00,362.00,VWS V14.01,2013-09-07 13:34:00,
2013-09-07 09:39:00,66.2,65.9,30.03,WSW,240,0.0,0.0,99,0.00,,---,0.00,380.00,VWS V14.01,2013-09-07 13:39:00,
2013-09-07 09:40:00,66.7,66.4,30.03,WSW,240,0.0,0.0,99,0.00,,---,0.00,408.00,VWS V14.01,2013-09-07 13:40:00,
2013-09-07 09:44:00,66.6,66.3,30.03,WSW,240,0.0,0.0,99,0.00,,---,0.00,396.00,VWS V14.01,2013-09-07 13:44:00,
2013-09-07 09:49:00,66.8,66.5,30.04,WSW,240,0.0,0.0,99,0.00,,---,0.00,413.00,VWS V14.01,2013-09-07 13:49:00,
2013-09-07 09:50:00,67.3,66.7,30.04,WSW,240,0.0,0.0,98,0.00,,---,0.00,445.00,VWS V14.01,2013-09-07 13:50:00,
2013-09-07 09:54:00,67.1,66.5,30.04,WSW,240,0.0,0.0,98,0.00,,---,0.00,429.00,VWS V14.01,2013-09-07 13:54:00,
2013-09-07 09:59:00,67.4,66.8,30.04,WSW,240,0.0,0.0,98,0.00,,---,0.00,360.00,VWS V14.01,2013-09-07 13:59:00,
2013-09-07 10:00:00,68.4,66.6,30.04,WSW,240,0.0,0.0,94,0.00,,---,0.00,485.00,VWS V14.01,2013-09-07 14:00:00,
2013-09-07 10:05:00,68.0,66.8,30.04,WSW,240,0.0,0.0,96,0.00,,---,0.00,462.00,VWS V14.01,2013-09-07 14:05:00,
2013-09-07 10:10:00,68.5,66.7,30.04,WSW,240,0.0,0.0,94,0.00,,---,0.00,492.00,VWS V14.01,2013-09-07 14:10:00,
2013-09-07 10:15:00,69.2,67.1,30.03,WSW,240,0.0,1.0,93,0.00,,---,0.00,506.00,VWS V14.01,2013-09-07 14:15:00,
2013-09-07 10:20:00,69.6,66.2,30.03,WSW,240,0.0,2.0,89,0.00,,---,0.00,527.00,VWS V14.01,2013-09-07 14:20:00,
2013-09-07 10:25:00,70.0,66.6,30.03,WSW,240,1.0,2.0,89,0.00,,---,0.00,545.00,VWS V14.01,2013-09-07 14:25:00,
2013-09-07 10:30:00,70.6,66.6,30.03,WSW,240,0.0,0.0,87,0.00,,---,0.00,561.00,VWS V14.01,2013-09-07 14:30:00,
2013-09-07 10:35:00,71.2,66.1,30.03,WSW,240,0.0,1.0,84,0.00,,---,0.00,571.00,VWS V14.01,2013-09-07 14:35:00,
2013-09-07 10:40:00,71.9,66.8,30.04,WSW,240,0.0,1.0,84,0.00,,---,0.00,587.00,VWS V14.01,2013-09-07 14:40:00,
2013-09-07 10:45:00,72.2,66.8,30.04,WSW,240,0.0,3.0,83,0.00,,---,0.00,601.00,VWS V14.01,2013-09-07 14:45:00,
2013-09-07 10:50:00,73.1,66.9,30.04,West,276,0.0,3.0,81,0.00,,---,0.00,633.00,VWS V14.01,2013-09-07 14:50:00,
2013-09-07 10:51:00,72.6,66.4,30.04,WNW,290,0.0,2.0,81,0.00,,---,0.00,617.00,VWS V14.01,2013-09-07 14:51:00,
2013-09-07 10:56:00,73.0,67.5,30.04,NW,304,3.0,3.0,83,0.00,,---,0.00,631.00,VWS V14.01,2013-09-07 14:56:00,
2013-09-07 11:00:00,73.8,66.9,30.04,SSW,205,0.0,3.0,79,0.00,,---,0.00,661.00,VWS V14.01,2013-09-07 15:00:00,
2013-09-07 11:01:00,73.3,66.8,30.04,WSW,244,2.0,3.0,80,0.00,,---,0.00,643.00,VWS V14.01,2013-09-07 15:01:00,
2013-09-07 11:06:00,73.7,67.2,30.04,SSW,200,1.0,3.0,80,0.00,,---,0.00,657.00,VWS V14.01,2013-09-07 15:06:00,
2013-09-07 11:10:00,74.4,67.5,30.04,SW,232,1.0,5.0,79,0.00,,---,0.00,686.00,VWS V14.01,2013-09-07 15:10:00,
2013-09-07 11:11:00,74.1,67.2,30.04,WSW,250,1.0,4.0,79,0.00,,---,0.00,670.00,VWS V14.01,2013-09-07 15:11:00,
2013-09-07 11:16:00,74.3,66.6,30.04,SW,231,5.0,5.0,77,0.00,,---,0.00,680.00,VWS V14.01,2013-09-07 15:16:00,
2013-09-07 11:20:00,75.0,67.3,30.04,WSW,244,0.0,5.0,77,0.00,,---,0.00,703.00,VWS V14.01,2013-09-07 15:20:00,
2013-09-07 11:21:00,74.6,68.0,30.04,WSW,242,0.0,2.0,80,0.00,,---,0.00,693.00,VWS V14.01,2013-09-07 15:21:00,
2013-09-07 11:26:00,75.0,67.7,30.04,WSW,245,3.0,4.0,78,0.00,,---,0.00,703.00,VWS V14.01,2013-09-07 15:26:00,
2013-09-07 11:30:00,75.7,67.6,30.03,SSW,212,5.0,6.0,76,0.00,,---,0.00,729.00,VWS V14.01,2013-09-07 15:30:00,
2013-09-07 11:31:00,75.2,67.5,30.04,SW,233,2.0,4.0,77,0.00,,---,0.00,710.00,VWS V14.01,2013-09-07 15:31:00,
2013-09-07 11:37:00,75.6,67.9,30.03,WSW,254,3.0,6.0,77,0.00,,---,0.00,728.00,VWS V14.01,2013-09-07 15:37:00,
2013-09-07 11:40:00,76.3,67.4,30.03,West,261,2.0,7.0,74,0.00,,---,0.00,745.00,VWS V14.01,2013-09-07 15:40:00,
2013-09-07 11:42:00,75.8,68.1,30.03,WNW,297,2.0,7.0,77,0.00,,---,0.00,735.00,VWS V14.01,2013-09-07 15:42:00,
2013-09-07 11:47:00,76.2,67.7,30.03,SW,232,4.0,7.0,75,0.00,,---,0.00,749.00,VWS V14.01,2013-09-07 15:47:00,
2013-09-07 11:50:00,76.5,67.6,30.03,NW,325,0.0,4.0,74,0.00,,---,0.00,768.00,VWS V14.01,2013-09-07 15:50:00,
2013-09-07 11:52:00,76.4,67.5,30.03,NW,307,3.0,4.0,74,0.00,,---,0.00,759.00,VWS V14.01,2013-09-07 15:52:00,
2013-09-07 11:57:00,76.5,67.6,30.03,WNW,294,0.0,4.0,74,0.00,,---,0.00,765.00,VWS V14.01,2013-09-07 15:57:00,
2013-09-07 12:00:00,77.1,67.4,30.02,WSW,239,2.0,5.0,72,0.00,,---,0.00,791.00,VWS V14.01,2013-09-07 16:00:00,
2013-09-07 12:02:00,76.7,67.8,30.02,WSW,246,2.0,4.0,74,0.00,,---,0.00,775.00,VWS V14.01,2013-09-07 16:02:00,
2013-09-07 12:07:00,77.1,67.8,30.02,West,279,1.0,5.0,73,0.00,,---,0.00,782.00,VWS V14.01,2013-09-07 16:07:00,
2013-09-07 12:10:00,77.5,67.4,30.02,WSW,238,0.0,6.0,71,0.00,,---,0.00,828.00,VWS V14.01,2013-09-07 16:10:00,
2013-09-07 12:12:00,77.3,68.0,30.02,WNW,286,2.0,4.0,73,0.00,,---,0.00,798.00,VWS V14.01,2013-09-07 16:12:00,
2013-09-07 12:17:00,77.5,67.4,30.02,WSW,238,0.0,6.0,71,0.00,,---,0.00,828.00,VWS V14.01,2013-09-07 16:17:00,
2013-09-07 12:20:00,77.8,68.1,30.02,WSW,246,0.0,4.0,72,0.00,,---,0.00,905.00,VWS V14.01,2013-09-07 16:20:00,
2013-09-07 12:22:00,77.7,67.1,30.02,WSW,242,3.0,4.0,70,0.00,,---,0.00,844.00,VWS V14.01,2013-09-07 16:22:00,
2013-09-07 12:28:00,77.8,68.1,30.02,WSW,246,0.0,4.0,72,0.00,,---,0.00,905.00,VWS V14.01,2013-09-07 16:28:00,
2013-09-07 12:30:00,78.6,68.0,30.01,WSW,248,0.0,5.0,70,0.00,,---,0.00,981.00,VWS V14.01,2013-09-07 16:30:00,
2013-09-07 12:33:00,78.2,68.8,30.02,SW,230,2.0,5.0,73,0.00,,---,0.00,921.00,VWS V14.01,2013-09-07 16:33:00,
2013-09-07 12:38:00,78.6,68.0,30.01,WSW,248,0.0,5.0,70,0.00,,---,0.00,981.00,VWS V14.01,2013-09-07 16:38:00,
2013-09-07 12:40:00,78.8,67.4,30.00,NW,311,1.0,5.0,68,0.00,,---,0.00,1004.00,VWS V14.01,2013-09-07 16:40:00,
2013-09-07 12:43:00,78.9,68.3,30.01,SSE,160,2.0,5.0,70,0.00,,---,0.00,988.00,VWS V14.01,2013-09-07 16:43:00,
2013-09-07 12:48:00,78.8,68.6,30.00,West,281,3.0,3.0,71,0.00,,---,0.00,1004.00,VWS V14.01,2013-09-07 16:48:00,
2013-09-07 12:50:00,78.0,66.6,30.00,SW,229,5.0,8.0,68,0.00,,---,0.00,919.00,VWS V14.01,2013-09-07 16:50:00,
2013-09-07 12:53:00,78.4,67.4,30.00,WSW,255,0.0,8.0,69,0.00,,---,0.00,241.00,VWS V14.01,2013-09-07 16:53:00,
2013-09-07 12:58:00,78.0,67.0,30.00,SW,217,2.0,5.0,69,0.00,,---,0.00,919.00,VWS V14.01,2013-09-07 16:58:00,
2013-09-07 13:00:00,78.3,67.7,30.00,West,276,0.0,9.0,70,0.00,,---,0.00,371.00,VWS V14.01,2013-09-07 17:00:00,
2013-09-07 13:03:00,78.1,66.7,30.00,South,186,0.0,9.0,68,0.00,,---,0.00,918.00,VWS V14.01,2013-09-07 17:03:00,
2013-09-07 13:08:00,78.4,67.8,30.00,West,274,0.0,2.0,70,0.00,,---,0.00,279.00,VWS V14.01,2013-09-07 17:08:00,
2013-09-07 13:10:00,78.2,66.8,30.00,SW,236,6.0,7.0,68,0.00,,---,0.00,257.00,VWS V14.01,2013-09-07 17:10:00,
2013-09-07 13:14:00,78.5,67.9,30.00,WSW,245,0.0,4.0,70,0.00,,---,0.00,292.00,VWS V14.01,2013-09-07 17:14:00,
2013-09-07 13:19:00,78.1,67.1,30.00,SW,232,0.0,6.0,69,0.00,,---,0.00,257.00,VWS V14.01,2013-09-07 17:19:00,
2013-09-07 13:20:00,78.1,66.7,30.00,SW,232,1.0,7.0,68,0.00,,---,0.00,135.00,VWS V14.01,2013-09-07 17:20:00,
2013-09-07 13:24:00,78.3,66.4,30.00,WSW,246,0.0,6.0,67,0.00,,---,0.00,902.00,VWS V14.01,2013-09-07 17:24:00,
2013-09-07 13:29:00,77.9,66.9,30.00,WSW,237,2.0,2.0,69,0.00,,---,0.00,146.00,VWS V14.01,2013-09-07 17:29:00,
2013-09-07 13:30:00,77.3,66.3,29.99,NW,313,0.0,5.0,69,0.00,,---,0.00,967.00,VWS V14.01,2013-09-07 17:30:00,
2013-09-07 13:34:00,77.2,66.7,30.00,NW,313,0.0,5.0,70,0.00,,---,0.00,211.00,VWS V14.01,2013-09-07 17:34:00,
2013-09-07 13:39:00,77.5,66.9,29.99,NW,313,0.0,0.0,70,0.00,,---,0.00,967.00,VWS V14.01,2013-09-07 17:39:00,
2013-09-07 13:40:00,77.9,67.3,29.99,WSW,240,0.0,5.0,70,0.00,,---,0.00,997.00,VWS V14.01,2013-09-07 17:40:00,
2013-09-07 13:44:00,77.8,66.8,29.99,WSW,237,0.0,5.0,69,0.00,,---,0.00,211.00,VWS V14.01,2013-09-07 17:44:00,
2013-09-07 13:50:00,78.0,67.4,29.99,WSW,240,0.0,4.0,70,0.00,,---,0.00,181.00,VWS V14.01,2013-09-07 17:50:00,
2013-09-07 13:55:00,78.2,66.4,29.99,ESE,123,0.0,4.0,67,0.00,,---,0.00,919.00,VWS V14.01,2013-09-07 17:55:00,
2013-09-07 14:00:00,78.9,66.6,29.99,WSW,242,2.0,3.0,66,0.00,,---,0.00,942.00,VWS V14.01,2013-09-07 18:00:00,
2013-09-07 14:05:00,79.7,67.3,29.99,WNW,294,3.0,5.0,66,0.00,,---,0.00,930.00,VWS V14.01,2013-09-07 18:05:00,
2013-09-07 14:10:00,80.2,66.9,29.98,SSE,159,1.0,6.0,64,0.00,,---,0.00,984.00,VWS V14.01,2013-09-07 18:10:00,
2013-09-07 14:15:00,80.3,67.0,29.98,WSW,237,2.0,6.0,64,0.00,,---,0.00,984.00,VWS V14.01,2013-09-07 18:15:00,
2013-09-07 14:20:00,79.9,67.1,29.98,West,281,2.0,4.0,65,0.00,,---,0.00,930.00,VWS V14.01,2013-09-07 18:20:00,
2013-09-07 14:25:00,80.2,67.8,29.98,WSW,242,2.0,7.0,66,0.00,,---,0.00,932.00,VWS V14.01,2013-09-07 18:25:00,
2013-09-07 14:30:00,80.7,66.9,29.98,SW,227,6.0,9.0,63,0.00,,---,0.00,914.00,VWS V14.01,2013-09-07 18:30:00,
2013-09-07 14:31:00,80.6,66.8,29.98,SW,231,3.0,3.0,63,0.00,,---,0.00,160.00,VWS V14.01,2013-09-07 18:31:00,
2013-09-07 14:36:00,80.6,66.4,29.98,SW,233,2.0,4.0,62,0.00,,---,0.00,949.00,VWS V14.01,2013-09-07 18:36:00,
2013-09-07 14:40:00,80.5,66.3,29.97,SW,232,0.0,9.0,62,0.00,,---,0.00,877.00,VWS V14.01,2013-09-07 18:40:00,
2013-09-07 14:41:00,80.8,66.6,29.97,SW,222,0.0,7.0,62,0.00,,---,0.00,940.00,VWS V14.01,2013-09-07 18:41:00,
2013-09-07 14:46:00,80.6,66.4,29.97,SW,235,0.0,9.0,62,0.00,,---,0.00,276.00,VWS V14.01,2013-09-07 18:46:00,
2013-09-07 14:50:00,80.1,65.9,29.97,SSW,207,0.0,5.0,62,0.00,,---,0.00,192.00,VWS V14.01,2013-09-07 18:50:00,
2013-09-07 14:51:00,80.2,65.5,29.97,North,351,0.0,3.0,61,0.00,,---,0.00,258.00,VWS V14.01,2013-09-07 18:51:00,
2013-09-07 14:56:00,80.3,66.6,29.97,SSW,207,2.0,5.0,63,0.00,,---,0.00,176.00,VWS V14.01,2013-09-07 18:56:00,
2013-09-07 15:00:00,80.3,67.0,29.97,WNW,285,0.0,5.0,64,0.00,,---,0.00,842.00,VWS V14.01,2013-09-07 19:00:00,
2013-09-07 15:01:00,79.9,67.1,29.97,SSW,207,1.0,2.0,65,0.00,,---,0.00,921.00,VWS V14.01,2013-09-07 19:01:00,
2013-09-07 15:07:00,80.2,66.9,29.97,SW,233,3.0,5.0,64,0.00,,---,0.00,849.00,VWS V14.01,2013-09-07 19:07:00,
2013-09-07 15:10:00,81.3,66.6,29.96,SW,221,2.0,9.0,61,0.00,,---,0.00,842.00,VWS V14.01,2013-09-07 19:10:00,
2013-09-07 15:12:00,80.6,66.8,29.97,North,360,0.0,6.0,63,0.00,,---,0.00,837.00,VWS V14.01,2013-09-07 19:12:00,
2013-09-07 15:17:00,81.3,66.6,29.96,SW,215,2.0,9.0,61,0.00,,---,0.00,842.00,VWS V14.01,2013-09-07 19:17:00,
2013-09-07 15:20:00,81.0,67.7,29.96,SW,233,1.0,6.0,64,0.00,,---,0.00,846.00,VWS V14.01,2013-09-07 19:20:00,
2013-09-07 15:22:00,80.8,67.0,29.96,SW,227,3.0,6.0,63,0.00,,---,0.00,830.00,VWS V14.01,2013-09-07 19:22:00,
2013-09-07 15:27:00,80.9,67.6,29.96,SSW,211,0.0,6.0,64,0.00,,---,0.00,835.00,VWS V14.01,2013-09-07 19:27:00,
2013-09-07 15:30:00,80.8,67.0,29.96,SW,235,0.0,7.0,63,0.00,,---,0.00,190.00,VWS V14.01,2013-09-07 19:30:00,
2013-09-07 15:32:00,81.5,66.8,29.96,SW,232,3.0,7.0,61,0.00,,---,0.00,200.00,VWS V14.01,2013-09-07 19:32:00,
2013-09-07 15:37:00,80.8,67.0,29.96,SW,234,2.0,7.0,63,0.00,,---,0.00,190.00,VWS V14.01,2013-09-07 19:37:00,
2013-09-07 15:40:00,81.5,68.2,29.96,West,271,0.0,7.0,64,0.00,,---,0.00,782.00,VWS V14.01,2013-09-07 19:40:00,
2013-09-07 15:42:00,80.6,67.3,29.96,SSW,194,2.0,7.0,64,0.00,,---,0.00,874.00,VWS V14.01,2013-09-07 19:42:00,
2013-09-07 15:47:00,81.4,68.1,29.96,West,269,0.0,7.0,64,0.00,,---,0.00,812.00,VWS V14.01,2013-09-07 19:47:00,
2013-09-07 15:50:00,82.0,67.7,29.95,West,281,0.0,7.0,62,0.00,,---,0.00,812.00,VWS V14.01,2013-09-07 19:50:00,
2013-09-07 15:53:00,82.1,67.3,29.95,WSW,243,3.0,7.0,61,0.00,,---,0.00,165.00,VWS V14.01,2013-09-07 19:53:00,
2013-09-07 15:58:00,82.0,67.7,29.95,West,276,2.0,2.0,62,0.00,,---,0.00,812.00,VWS V14.01,2013-09-07 19:58:00,
2013-09-07 16:00:00,82.2,67.4,29.95,WNW,290,0.0,6.0,61,0.00,,---,0.00,250.00,VWS V14.01,2013-09-07 20:00:00,
2013-09-07 16:03:00,82.3,66.6,29.95,WNW,290,1.0,6.0,59,0.00,,---,0.00,213.00,VWS V14.01,2013-09-07 20:03:00,
2013-09-07 16:09:00,82.3,67.5,29.95,WNW,290,0.0,0.0,61,0.00,,---,0.00,670.00,VWS V14.01,2013-09-07 20:09:00,
2013-09-07 16:10:00,81.8,67.5,29.95,SW,229,0.0,7.0,62,0.00,,---,0.00,149.00,VWS V14.01,2013-09-07 20:10:00,
2013-09-07 16:14:00,82.1,66.8,29.95,WSW,239,2.0,7.0,60,0.00,,---,0.00,220.00,VWS V14.01,2013-09-07 20:14:00,
2013-09-07 16:19:00,81.7,66.5,29.95,SW,232,0.0,3.0,60,0.00,,---,0.00,192.00,VWS V14.01,2013-09-07 20:19:00,
2013-09-07 16:20:00,81.2,67.9,29.95,SW,233,0.0,3.0,64,0.00,,---,0.00,733.00,VWS V14.01,2013-09-07 20:20:00,
2013-09-07 16:24:00,81.2,66.9,29.95,WSW,238,2.0,3.0,62,0.00,,---,0.00,385.00,VWS V14.01,2013-09-07 20:24:00,
2013-09-07 16:29:00,81.4,67.1,29.95,SW,233,0.0,1.0,62,0.00,,---,0.00,719.00,VWS V14.01,2013-09-07 20:29:00,
2013-09-07 16:30:00,82.1,66.8,29.94,WSW,241,0.0,9.0,60,0.00,,---,0.00,642.00,VWS V14.01,2013-09-07 20:30:00,
2013-09-07 16:34:00,82.1,67.3,29.94,SSW,206,8.0,9.0,61,0.00,,---,0.00,668.00,VWS V14.01,2013-09-07 20:34:00,
2013-09-07 16:39:00,82.2,67.9,29.94,WSW,241,1.0,1.0,62,0.00,,---,0.00,642.00,VWS V14.01,2013-09-07 20:39:00,
2013-09-07 16:40:00,83.0,68.2,29.94,WSW,246,2.0,7.0,61,0.00,,---,0.00,603.00,VWS V14.01,2013-09-07 20:40:00,
2013-09-07 16:45:00,82.7,68.4,29.94,West,273,0.0,5.0,62,0.00,,---,0.00,633.00,VWS V14.01,2013-09-07 20:45:00,
2013-09-07 16:50:00,83.1,67.3,29.94,WSW,239,0.0,4.0,59,0.00,,---,0.00,603.00,VWS V14.01,2013-09-07 20:50:00,
2013-09-07 16:55:00,83.4,67.1,29.94,WSW,243,1.0,4.0,58,0.00,,---,0.00,580.00,VWS V14.01,2013-09-07 20:55:00,
2013-09-07 17:00:00,83.4,66.1,29.94,SW,232,2.0,8.0,56,0.00,,---,0.00,582.00,VWS V14.01,2013-09-07 21:00:00,
2013-09-07 17:05:00,83.0,66.7,29.94,WSW,245,0.0,8.0,58,0.00,,---,0.00,559.00,VWS V14.01,2013-09-07 21:05:00,
2013-09-07 17:10:00,82.5,66.7,29.94,SW,234,0.0,7.0,59,0.00,,---,0.00,536.00,VWS V14.01,2013-09-07 21:10:00,
2013-09-07 17:15:00,82.3,66.6,29.94,SW,217,0.0,7.0,59,0.00,,---,0.00,501.00,VWS V14.01,2013-09-07 21:15:00,
2013-09-07 17:20:00,82.3,67.5,29.94,South,190,0.0,5.0,61,0.00,,---,0.00,464.00,VWS V14.01,2013-09-07 21:20:00,
2013-09-07 17:21:00,82.1,67.3,29.94,WSW,242,0.0,4.0,61,0.00,,---,0.00,492.00,VWS V14.01,2013-09-07 21:21:00,
2013-09-07 17:26:00,82.2,67.4,29.94,SW,216,0.0,5.0,61,0.00,,---,0.00,468.00,VWS V14.01,2013-09-07 21:26:00,
2013-09-07 17:30:00,82.4,67.1,29.94,WSW,239,3.0,6.0,60,0.00,,---,0.00,422.00,VWS V14.01,2013-09-07 21:30:00,
2013-09-07 17:31:00,82.5,67.7,29.94,SW,228,2.0,2.0,61,0.00,,---,0.00,452.00,VWS V14.01,2013-09-07 21:31:00,
2013-09-07 17:36:00,82.4,67.1,29.94,West,263,1.0,5.0,60,0.00,,---,0.00,436.00,VWS V14.01,2013-09-07 21:36:00,
2013-09-07 17:40:00,82.3,67.0,29.94,SW,231,3.0,5.0,60,0.00,,---,0.00,394.00,VWS V14.01,2013-09-07 21:40:00,
2013-09-07 17:41:00,82.3,66.1,29.94,SW,226,1.0,5.0,58,0.00,,---,0.00,418.00,VWS V14.01,2013-09-07 21:41:00,
2013-09-07 17:46:00,82.3,67.5,29.93,SW,227,2.0,5.0,61,0.00,,---,0.00,396.00,VWS V14.01,2013-09-07 21:46:00,
2013-09-07 17:50:00,82.2,66.9,29.93,WSW,248,3.0,5.0,60,0.00,,---,0.00,360.00,VWS V14.01,2013-09-07 21:50:00,
2013-09-07 17:51:00,82.1,67.3,29.93,SW,232,0.0,5.0,61,0.00,,---,0.00,380.00,VWS V14.01,2013-09-07 21:51:00,
2013-09-07 17:57:00,82.1,67.8,29.93,SW,232,0.0,5.0,62,0.00,,---,0.00,362.00,VWS V14.01,2013-09-07 21:57:00,
2013-09-07 18:00:00,81.7,67.4,29.93,SW,226,1.0,7.0,62,0.00,,---,0.00,322.00,VWS V14.01,2013-09-07 22:00:00,
2013-09-07 18:02:00,82.1,66.4,29.93,SW,229,1.0,7.0,59,0.00,,---,0.00,346.00,VWS V14.01,2013-09-07 22:02:00,
2013-09-07 18:07:00,81.7,66.9,29.93,SW,221,0.0,7.0,61,0.00,,---,0.00,325.00,VWS V14.01,2013-09-07 22:07:00,
2013-09-07 18:10:00,81.2,66.5,29.93,WNW,286,1.0,6.0,61,0.00,,---,0.00,285.00,VWS V14.01,2013-09-07 22:10:00,
2013-09-07 18:12:00,81.5,66.8,29.93,SW,234,1.0,6.0,61,0.00,,---,0.00,304.00,VWS V14.01,2013-09-07 22:12:00,
2013-09-07 18:17:00,81.3,67.1,29.93,SW,235,3.0,6.0,62,0.00,,---,0.00,285.00,VWS V14.01,2013-09-07 22:17:00,
2013-09-07 18:20:00,80.8,67.0,29.93,SW,220,0.0,7.0,63,0.00,,---,0.00,239.00,VWS V14.01,2013-09-07 22:20:00,
2013-09-07 18:22:00,81.0,66.3,29.93,SW,220,0.0,7.0,61,0.00,,---,0.00,262.00,VWS V14.01,2013-09-07 22:22:00,
2013-09-07 18:27:00,80.9,67.1,29.93,SW,216,0.0,7.0,63,0.00,,---,0.00,239.00,VWS V14.01,2013-09-07 22:27:00,
2013-09-07 18:30:00,80.9,67.1,29.93,SW,224,0.0,3.0,63,0.00,,---,0.00,195.00,VWS V14.01,2013-09-07 22:30:00,
2013-09-07 18:33:00,80.7,66.5,29.93,SW,220,0.0,3.0,62,0.00,,---,0.00,218.00,VWS V14.01,2013-09-07 22:33:00,
2013-09-07 18:38:00,80.9,67.1,29.93,SW,224,0.0,3.0,63,0.00,,---,0.00,195.00,VWS V14.01,2013-09-07 22:38:00,
2013-09-07 18:40:00,80.8,67.0,29.93,SW,224,0.0,4.0,63,0.00,,---,0.00,155.00,VWS V14.01,2013-09-07 22:40:00,
2013-09-07 18:43:00,81.1,67.3,29.93,SW,220,0.0,2.0,63,0.00,,---,0.00,176.00,VWS V14.01,2013-09-07 22:43:00,
2013-09-07 18:48:00,80.8,67.0,29.93,SW,224,0.0,4.0,63,0.00,,---,0.00,155.00,VWS V14.01,2013-09-07 22:48:00,
2013-09-07 18:50:00,80.7,68.3,29.93,SW,224,0.0,1.0,66,0.00,,---,0.00,118.00,VWS V14.01,2013-09-07 22:50:00,
2013-09-07 18:53:00,80.6,67.3,29.93,SW,224,0.0,1.0,64,0.00,,---,0.00,139.00,VWS V14.01,2013-09-07 22:53:00,
2013-09-07 18:58:00,80.7,68.3,29.93,SW,224,0.0,0.0,66,0.00,,---,0.00,118.00,VWS V14.01,2013-09-07 22:58:00,
2013-09-07 19:00:00,80.8,67.5,29.92,SW,224,0.0,1.0,64,0.00,,---,0.00,79.00,VWS V14.01,2013-09-07 23:00:00,
2013-09-07 19:03:00,80.8,67.9,29.92,SW,224,0.0,1.0,65,0.00,,---,0.00,97.00,VWS V14.01,2013-09-07 23:03:00,
2013-09-07 19:08:00,80.8,67.5,29.92,SW,224,0.0,0.0,64,0.00,,---,0.00,79.00,VWS V14.01,2013-09-07 23:08:00,
2013-09-07 19:10:00,80.3,67.5,29.92,SW,224,0.0,1.0,65,0.00,,---,0.00,33.00,VWS V14.01,2013-09-07 23:10:00,
2013-09-07 19:13:00,80.6,68.2,29.92,SW,224,0.0,1.0,66,0.00,,---,0.00,62.00,VWS V14.01,2013-09-07 23:13:00,
2013-09-07 19:19:00,80.3,67.9,29.92,SW,224,0.0,0.0,66,0.00,,---,0.00,33.00,VWS V14.01,2013-09-07 23:19:00,
2013-09-07 19:20:00,78.9,67.4,29.93,SW,224,0.0,0.0,68,0.00,,---,0.00,19.00,VWS V14.01,2013-09-07 23:20:00,
2013-09-07 19:24:00,79.8,68.3,29.92,SW,224,0.0,0.0,68,0.00,,---,0.00,21.00,VWS V14.01,2013-09-07 23:24:00,
2013-09-07 19:29:00,78.7,67.3,29.93,SW,224,0.0,0.0,68,0.00,,---,0.00,18.00,VWS V14.01,2013-09-07 23:29:00,
2013-09-07 19:30:00,76.7,66.2,29.93,SW,224,0.0,0.0,70,0.00,,---,0.00,9.00,VWS V14.01,2013-09-07 23:30:00,
2013-09-07 19:34:00,77.6,67.1,29.93,SW,224,0.0,0.0,70,0.00,,---,0.00,11.00,VWS V14.01,2013-09-07 23:34:00,
2013-09-07 19:39:00,76.4,66.7,29.93,SW,224,0.0,0.0,72,0.00,,---,0.00,7.00,VWS V14.01,2013-09-07 23:39:00,
2013-09-07 19:40:00,74.8,65.6,29.93,SW,224,0.0,0.0,73,0.00,,---,0.00,0.00,VWS V14.01,2013-09-07 23:40:00,
2013-09-07 19:44:00,75.4,65.8,29.93,SW,224,0.0,0.0,72,0.00,,---,0.00,5.00,VWS V14.01,2013-09-07 23:44:00,
2013-09-07 19:50:00,74.6,65.8,29.93,SW,224,0.0,0.0,74,0.00,,---,0.00,0.00,VWS V14.01,2013-09-07 23:50:00,
2013-09-07 19:55:00,73.8,65.8,29.93,SW,224,0.0,0.0,76,0.00,,---,0.00,0.00,VWS V14.01,2013-09-07 23:55:00,
2013-09-07 20:00:00,73.2,65.6,29.93,SW,224,0.0,0.0,77,0.00,,---,0.00,0.00,VWS V14.01,2013-09-08 00:00:00,
2013-09-07 20:05:00,72.5,65.3,29.93,SW,224,0.0,0.0,78,0.00,,---,0.00,0.00,VWS V14.01,2013-09-08 00:05:00,
2013-09-07 20:10:00,71.9,65.0,29.93,SW,224,0.0,0.0,79,0.00,,---,0.00,0.00,VWS V14.01,2013-09-08 00:10:00,
2013-09-07 20:15:00,71.3,64.8,29.93,SW,224,0.0,0.0,80,0.00,,---,0.00,0.00,VWS V14.01,2013-09-08 00:15:00,
2013-09-07 20:20:00,70.7,64.6,29.93,SW,224,0.0,0.0,81,0.00,,---,0.00,0.00,VWS V14.01,2013-09-08 00:20:00,
2013-09-07 20:26:00,70.2,64.4,29.93,SW,224,0.0,0.0,82,0.00,,---,0.00,0.00,VWS V14.01,2013-09-08 00:26:00,
2013-09-07 20:30:00,69.5,64.5,29.93,SW,224,0.0,0.0,84,0.00,,---,0.00,0.00,VWS V14.01,2013-09-08 00:30:00,
2013-09-07 20:31:00,69.8,64.8,29.93,SW,224,0.0,0.0,84,0.00,,---,0.00,0.00,VWS V14.01,2013-09-08 00:31:00,
2013-09-07 20:36:00,69.6,64.6,29.93,SW,224,0.0,0.0,84,0.00,,---,0.00,0.00,VWS V14.01,2013-09-08 00:36:00,
2013-09-07 20:40:00,69.2,64.2,29.93,SW,224,0.0,0.0,84,0.00,,---,0.00,0.00,VWS V14.01,2013-09-08 00:40:00,
2013-09-07 20:41:00,69.4,64.4,29.93,SW,224,0.0,0.0,84,0.00,,---,0.00,0.00,VWS V14.01,2013-09-08 00:41:00,
2013-09-07 20:46:00,69.2,64.2,29.93,SW,224,0.0,0.0,84,0.00,,---,0.00,0.00,VWS V14.01,2013-09-08 00:46:00,
2013-09-07 20:50:00,68.9,64.2,29.93,SW,224,0.0,0.0,85,0.00,,---,0.00,0.00,VWS V14.01,2013-09-08 00:50:00,
2013-09-07 20:51:00,69.1,64.4,29.93,SW,224,0.0,0.0,85,0.00,,---,0.00,0.00,VWS V14.01,2013-09-08 00:51:00,
2013-09-07 20:57:00,69.0,64.3,29.93,SW,224,0.0,0.0,85,0.00,,---,0.00,0.00,VWS V14.01,2013-09-08 00:57:00,
2013-09-07 21:00:00,68.6,64.2,29.94,SW,224,0.0,0.0,86,0.00,,---,0.00,0.00,VWS V14.01,2013-09-08 01:00:00,
2013-09-07 21:02:00,68.8,64.1,29.93,SW,224,0.0,0.0,85,0.00,,---,0.00,0.00,VWS V14.01,2013-09-08 01:02:00,
2013-09-07 21:07:00,68.6,64.2,29.94,SW,224,0.0,0.0,86,0.00,,---,0.00,0.00,VWS V14.01,2013-09-08 01:07:00,
2013-09-07 21:10:00,68.1,64.1,29.94,SW,224,0.0,1.0,87,0.00,,---,0.00,0.00,VWS V14.01,2013-09-08 01:10:00,
2013-09-07 21:12:00,68.5,64.2,29.94,SW,224,0.0,0.0,86,0.00,,---,0.00,0.00,VWS V14.01,2013-09-08 01:12:00,
2013-09-07 21:17:00,68.2,64.2,29.94,SW,224,0.0,0.0,87,0.00,,---,0.00,0.00,VWS V14.01,2013-09-08 01:17:00,
2013-09-07 21:20:00,67.9,64.2,29.94,SW,224,0.0,0.0,88,0.00,,---,0.00,0.00,VWS V14.01,2013-09-08 01:20:00,
2013-09-07 21:22:00,68.0,64.0,29.94,SW,224,0.0,0.0,87,0.00,,---,0.00,0.00,VWS V14.01,2013-09-08 01:22:00,
2013-09-07 21:27:00,67.9,64.2,29.94,SW,224,0.0,0.0,88,0.00,,---,0.00,0.00,VWS V14.01,2013-09-08 01:27:00,
2013-09-07 21:30:00,67.6,63.9,29.94,SW,224,0.0,0.0,88,0.00,,---,0.00,0.00,VWS V14.01,2013-09-08 01:30:00,
2013-09-07 21:32:00,67.8,64.1,29.94,SW,224,0.0,0.0,88,0.00,,---,0.00,0.00,VWS V14.01,2013-09-08 01:32:00,
2013-09-07 21:38:00,67.7,64.0,29.94,SW,224,0.0,0.0,88,0.00,,---,0.00,0.00,VWS V14.01,2013-09-08 01:38:00,
2013-09-07 21:40:00,67.5,63.8,29.94,SW,224,0.0,0.0,88,0.00,,---,0.00,0.00,VWS V14.01,2013-09-08 01:40:00,
2013-09-07 21:43:00,67.6,63.9,29.94,SW,224,0.0,0.0,88,0.00,,---,0.00,0.00,VWS V14.01,2013-09-08 01:43:00,
2013-09-07 21:48:00,67.5,63.8,29.94,SW,224,0.0,0.0,88,0.00,,---,0.00,0.00,VWS V14.01,2013-09-08 01:48:00,
2013-09-07 21:50:00,67.4,63.7,29.93,SW,224,0.0,0.0,88,0.00,,---,0.00,0.00,VWS V14.01,2013-09-08 01:50:00,
2013-09-07 21:53:00,67.5,63.8,29.93,SW,224,0.0,0.0,88,0.00,,---,0.00,0.00,VWS V14.01,2013-09-08 01:53:00,
2013-09-07 21:58:00,67.4,64.1,29.93,SW,224,0.0,0.0,89,0.00,,---,0.00,0.00,VWS V14.01,2013-09-08 01:58:00,
2013-09-07 22:00:00,67.3,64.0,29.93,SW,224,0.0,0.0,89,0.00,,---,0.00,0.00,VWS V14.01,2013-09-08 02:00:00,
2013-09-07 22:03:00,67.4,64.1,29.93,SW,224,0.0,0.0,89,0.00,,---,0.00,0.00,VWS V14.01,2013-09-08 02:03:00,
2013-09-07 22:08:00,67.3,64.0,29.93,SW,224,0.0,0.0,89,0.00,,---,0.00,0.00,VWS V14.01,2013-09-08 02:08:00,
2013-09-07 22:10:00,67.2,63.8,29.93,SW,224,0.0,0.0,89,0.00,,---,0.00,0.00,VWS V14.01,2013-09-08 02:10:00,
2013-09-07 22:13:00,67.2,63.8,29.93,SW,224,0.0,0.0,89,0.00,,---,0.00,0.00,VWS V14.01,2013-09-08 02:13:00,
2013-09-07 22:19:00,67.1,63.8,29.93,SW,224,0.0,0.0,89,0.00,,---,0.00,0.00,VWS V14.01,2013-09-08 02:19:00,
2013-09-07 22:20:00,67.1,63.8,29.93,SW,224,0.0,0.0,89,0.00,,---,0.00,0.00,VWS V14.01,2013-09-08 02:20:00,
2013-09-07 22:24:00,67.1,63.8,29.93,SW,224,0.0,0.0,89,0.00,,---,0.00,0.00,VWS V14.01,2013-09-08 02:24:00,
2013-09-07 22:29:00,67.0,63.7,29.93,SW,224,0.0,0.0,89,0.00,,---,0.00,0.00,VWS V14.01,2013-09-08 02:29:00,
2013-09-07 22:30:00,67.0,63.7,29.93,SW,224,0.0,0.0,89,0.00,,---,0.00,0.00,VWS V14.01,2013-09-08 02:30:00,
2013-09-07 22:34:00,67.0,63.7,29.93,SW,224,0.0,0.0,89,0.00,,---,0.00,0.00,VWS V14.01,2013-09-08 02:34:00,
2013-09-07 22:39:00,67.0,63.7,29.93,SW,224,0.0,0.0,89,0.00,,---,0.00,0.00,VWS V14.01,2013-09-08 02:39:00,
2013-09-07 22:40:00,66.9,63.6,29.93,SW,224,0.0,0.0,89,0.00,,---,0.00,0.00,VWS V14.01,2013-09-08 02:40:00,
2013-09-07 22:44:00,67.0,63.7,29.93,SW,224,0.0,0.0,89,0.00,,---,0.00,0.00,VWS V14.01,2013-09-08 02:44:00,
2013-09-07 22:49:00,66.9,63.6,29.93,SW,224,0.0,0.0,89,0.00,,---,0.00,0.00,VWS V14.01,2013-09-08 02:49:00,
2013-09-07 22:50:00,66.8,63.8,29.93,SW,224,0.0,0.0,90,0.00,,---,0.00,0.00,VWS V14.01,2013-09-08 02:50:00,
2013-09-07 22:55:00,66.8,63.8,29.93,SW,224,0.0,0.0,90,0.00,,---,0.00,0.00,VWS V14.01,2013-09-08 02:55:00,
2013-09-07 23:00:00,66.8,63.8,29.93,SW,224,0.0,0.0,90,0.00,,---,0.00,0.00,VWS V14.01,2013-09-08 03:00:00,
2013-09-07 23:05:00,66.7,63.4,29.93,SW,224,0.0,0.0,89,0.00,,---,0.00,0.00,VWS V14.01,2013-09-08 03:05:00,
2013-09-07 23:10:00,66.7,63.7,29.93,SW,224,0.0,0.0,90,0.00,,---,0.00,0.00,VWS V14.01,2013-09-08 03:10:00,
2013-09-07 23:15:00,66.7,63.7,29.93,SW,224,0.0,0.0,90,0.00,,---,0.00,0.00,VWS V14.01,2013-09-08 03:15:00,
2013-09-07 23:20:00,66.6,63.6,29.93,SW,224,0.0,0.0,90,0.00,,---,0.00,0.00,VWS V14.01,2013-09-08 03:20:00,
2013-09-07 23:26:00,66.6,63.6,29.93,SW,224,0.0,0.0,90,0.00,,---,0.00,0.00,VWS V14.01,2013-09-08 03:26:00,
2013-09-07 23:30:00,66.6,63.9,29.94,SW,224,0.0,0.0,91,0.00,,---,0.00,0.00,VWS V14.01,2013-09-08 03:30:00,
2013-09-07 23:31:00,66.6,63.6,29.93,SW,224,0.0,0.0,90,0.00,,---,0.00,0.00,VWS V14.01,2013-09-08 03:31:00,
2013-09-07 23:36:00,66.6,63.9,29.94,SW,224,0.0,0.0,91,0.00,,---,0.00,0.00,VWS V14.01,2013-09-08 03:36:00,
2013-09-07 23:40:00,66.5,63.8,29.94,SW,224,0.0,0.0,91,0.00,,---,0.00,0.00,VWS V14.01,2013-09-08 03:40:00,
2013-09-07 23:41:00,66.6,63.9,29.94,SW,224,0.0,0.0,91,0.00,,---,0.00,0.00,VWS V14.01,2013-09-08 03:41:00,
2013-09-07 23:46:00,66.6,63.9,29.94,SW,224,0.0,0.0,91,0.00,,---,0.00,0.00,VWS V14.01,2013-09-08 03:46:00,
2013-09-07 23:50:00,66.3,63.9,29.94,SW,224,0.0,0.0,92,0.00,,---,0.00,0.00,VWS V14.01,2013-09-08 03:50:00,
2013-09-07 23:52:00,66.5,63.8,29.94,SW,224,0.0,0.0,91,0.00,,---,0.00,0.00,VWS V14.01,2013-09-08 03:52:00,
2013-09-07 23:57:00,66.4,63.7,29.94,SW,224,0.0,0.0,91,0.00,,---,0.00,0.00,VWS V14.01,2013-09-08 03:57:00,